Albion, NE

10:52 PM CDT on July 27, 2017 (GMT -0500)
Albion Municipal

Weather History for KBVN - March, 2014

Change the Weather History Date:

Tuesday, March 25, 2014

  Actual Average (KOFK) Record (KOFK)
Temperature  
Mean Temperature 28 °F -  
Max Temperature 39 °F 49 °F 84 °F (1908)
Min Temperature 16 °F 27 °F -1 °F (1894)
Degree Days  
Heating Degree Days 38    
Moisture  
Dew Point 9 °F    
Average Humidity 49    
Maximum Humidity 81    
Minimum Humidity 23    
Precipitation  
Precipitation 0.00 in - - ()
Sea Level Pressure  
Sea Level Pressure 30.25 in    
Wind  
Wind Speed 10 mph (NW)    
Max Wind Speed 17 mph    
Max Gust Speed 24 mph    
Visibility 10 miles    
Events      
Averages and records for this station are not official NWS values.
T = Trace of Precipitation, MM = Missing Value Source: NWS Daily Summary

Daily Weather History Graph

Daily Weather History Graph

Search for Another Location

Airport or City:

Trip Planner

Search our weather history database for the weather conditions in past years. The results will help you decide how hot, cold, wet, or windy it might be!

Date:

Astronomy

Mar. 25, 2014 Rise Set
Actual Time 7:26 AM CDT 7:50 PM CDT
Civil Twilight 6:59 AM CDT 8:17 PM CDT
Nautical Twilight 6:26 AM CDT 8:50 PM CDT
Astronomical Twilight 5:52 AM CDT 9:24 PM CDT
Moon 3:54 AM CDT (3/25) 2:18 PM CDT (3/25)
Length of Visible Light 13h 18m
Length of Day
12h 23m
Waning Crescent, 32% of the Moon is Illuminated
Mar 25
Waning Crescent
Mar 30
New
Apr 7
First Quarter
Apr 15
Full
Apr 22
Last Quarter

Hourly Weather History & Observations

Time (CDT) Temp. Windchill Dew Point Humidity Pressure Visibility Wind Dir Wind Speed Gust Speed Precip Events Conditions
12:15 AM 30.7 °F 20.0 °F 14.9 °F 52% 30.27 in 10.0 mi NNW 15.0 mph 19.6 mph N/A   Overcast
12:35 AM 30.7 °F 20.4 °F 14.4 °F 51% 30.28 in 10.0 mi North 13.8 mph 21.9 mph N/A   Overcast
12:55 AM 29.8 °F 19.8 °F 15.8 °F 56% 30.28 in 10.0 mi NNW 12.7 mph - N/A   Overcast
1:15 AM 28.4 °F 19.7 °F 16.3 °F 61% 30.28 in 10.0 mi NNW 9.2 mph - N/A   Mostly Cloudy
1:35 AM 29.1 °F 18.4 °F 17.6 °F 62% 30.29 in 10.0 mi NNW 13.8 mph 18.4 mph N/A   Mostly Cloudy
1:55 AM 28.2 °F 19.5 °F 17.6 °F 64% 30.30 in 10.0 mi NNW 9.2 mph 17.3 mph N/A   Mostly Cloudy
2:15 AM 27.5 °F 15.0 °F 16.2 °F 62% 30.31 in 10.0 mi NNW 17.3 mph 24.2 mph N/A   Mostly Cloudy
2:35 AM 26.4 °F 15.5 °F 15.8 °F 64% 30.32 in 10.0 mi NNW 12.7 mph - N/A   Scattered Clouds
2:55 AM 25.3 °F 14.7 °F 16.3 °F 69% 30.32 in 10.0 mi NNW 11.5 mph - N/A   Scattered Clouds
3:15 AM 24.3 °F 13.9 °F 15.8 °F 70% 30.32 in 10.0 mi NW 10.4 mph - N/A   Clear
3:35 AM 23.9 °F 13.5 °F 16.0 °F 72% 30.32 in 10.0 mi NW 10.4 mph - N/A   Clear
3:55 AM 22.6 °F 12.6 °F 15.4 °F 74% 30.32 in 10.0 mi NW 9.2 mph - N/A   Clear
4:15 AM 21.9 °F 11.7 °F 15.1 °F 75% 30.32 in 10.0 mi NW 9.2 mph - N/A   Clear
4:35 AM 21.4 °F 11.1 °F 14.5 °F 75% 30.32 in 10.0 mi NW 9.2 mph - N/A   Clear
4:55 AM 19.4 °F 10.4 °F 13.6 °F 78% 30.34 in 10.0 mi NW 6.9 mph - N/A   Clear
5:15 AM 19.0 °F 9.0 °F 13.1 °F 78% 30.34 in 10.0 mi NW 8.1 mph - N/A   Clear
5:35 AM 18.5 °F 8.4 °F 12.9 °F 79% 30.34 in 10.0 mi NW 8.1 mph - N/A   Clear
5:55 AM 18.3 °F 9.1 °F 12.4 °F 78% 30.35 in 10.0 mi NW 6.9 mph - N/A   Clear
6:15 AM 17.1 °F 8.7 °F 12.0 °F 81% 30.35 in 10.0 mi NW 5.8 mph - N/A   Clear
6:35 AM 16.2 °F 7.6 °F 11.1 °F 81% 30.36 in 10.0 mi NW 5.8 mph - N/A   Clear
6:55 AM 17.1 °F 8.7 °F 11.8 °F 80% 30.36 in 10.0 mi NW 5.8 mph - N/A   Scattered Clouds
7:15 AM 18.3 °F 13.1 °F 12.7 °F 79% 30.36 in 10.0 mi NW 3.5 mph - N/A   Overcast
7:35 AM 19.4 °F 10.4 °F 12.9 °F 76% 30.37 in 10.0 mi NW 6.9 mph - N/A   Overcast
7:55 AM 19.4 °F 9.5 °F 12.7 °F 75% 30.37 in 10.0 mi NW 8.1 mph - N/A   Mostly Cloudy
8:15 AM 19.9 °F 10.1 °F 12.7 °F 74% 30.37 in 10.0 mi NW 8.1 mph - N/A   Scattered Clouds
8:35 AM 20.3 °F 11.5 °F 13.1 °F 74% 30.38 in 10.0 mi NW 6.9 mph - N/A   Clear
8:55 AM 21.6 °F 12.1 °F 13.1 °F 70% 30.37 in 10.0 mi North 8.1 mph - N/A   Clear
9:15 AM 22.6 °F 11.9 °F 13.1 °F 67% 30.37 in 10.0 mi NNW 10.4 mph - N/A   Clear
9:35 AM 23.7 °F 13.3 °F 12.6 °F 62% 30.38 in 10.0 mi NNW 10.4 mph 17.3 mph N/A   Clear
9:55 AM 24.6 °F 14.4 °F 11.8 °F 58% 30.38 in 10.0 mi NNW 10.4 mph 18.4 mph N/A   Clear
10:15 AM 25.9 °F 14.3 °F 12.4 °F 57% 30.37 in 10.0 mi NW 13.8 mph - N/A   Clear
10:35 AM 26.6 °F 15.7 °F 10.9 °F 52% 30.38 in 10.0 mi NW 12.7 mph 17.3 mph N/A   Clear
10:55 AM 27.1 °F 15.9 °F 8.6 °F 46% 30.37 in 10.0 mi NW 13.8 mph 21.9 mph N/A   Clear
11:15 AM 28.4 °F 17.5 °F 8.1 °F 42% 30.37 in 10.0 mi NW 13.8 mph - N/A   Clear
11:35 AM 29.1 °F 18.9 °F 7.7 °F 41% 30.36 in 10.0 mi NNW 12.7 mph 18.4 mph N/A   Clear
11:55 AM 29.5 °F 18.0 °F 6.4 °F 38% 30.35 in 10.0 mi NNW 16.1 mph 23.0 mph N/A   Clear
12:15 PM 30.2 °F 21.3 °F 5.4 °F 35% 30.35 in 10.0 mi NW 10.4 mph 16.1 mph N/A   Clear
12:35 PM 31.1 °F 25.4 °F 5.7 °F 34% 30.34 in 10.0 mi NNW 5.8 mph 16.1 mph N/A   Clear
1:15 PM 32.5 °F 25.5 °F 3.9 °F 30% 30.32 in 10.0 mi West 8.1 mph 16.1 mph N/A   Clear
1:35 PM 33.1 °F 26.1 °F 4.5 °F 30% 30.30 in 10.0 mi NNW 8.1 mph - N/A   Clear
1:55 PM 33.4 °F 24.8 °F 3.6 °F 28% 30.28 in 10.0 mi NNW 11.5 mph - N/A   Clear
2:15 PM 34.2 °F 27.5 °F 3.7 °F 28% 30.27 in 10.0 mi WNW 8.1 mph - N/A   Clear
2:35 PM 34.9 °F 27.1 °F 4.5 °F 28% 30.25 in 10.0 mi NW 10.4 mph 16.1 mph N/A   Clear
2:55 PM 36.0 °F 29.0 °F 3.7 °F 26% 30.25 in 10.0 mi WNW 9.2 mph - N/A   Clear
3:15 PM 36.3 °F 30.8 °F 4.1 °F 26% 30.24 in 10.0 mi WNW 6.9 mph - N/A   Clear
3:40 PM 37.2 °F 31.2 °F 4.3 °F 25% 30.21 in 10.0 mi WSW 8.1 mph - N/A   Clear
3:55 PM 37.0 °F 31.6 °F 4.8 °F 26% 30.21 in 10.0 mi WNW 6.9 mph - N/A   Clear
4:15 PM 37.4 °F 33.8 °F 5.0 °F 26% 30.20 in 10.0 mi NNW 4.6 mph - N/A   Clear
4:35 PM 38.7 °F 32.9 °F 4.6 °F 24% 30.19 in 10.0 mi West 8.1 mph - N/A   Clear
4:55 PM 38.7 °F 34.3 °F 4.1 °F 24% 30.18 in 10.0 mi SW 5.8 mph - N/A   Clear
5:15 PM 38.7 °F 33.6 °F 3.4 °F 23% 30.17 in 10.0 mi WSW 6.9 mph - N/A   Clear
5:35 PM 38.8 °F 33.8 °F 3.6 °F 23% 30.16 in 10.0 mi West 6.9 mph - N/A   Clear
5:55 PM 39.4 °F 36.1 °F 4.5 °F 23% 30.15 in 10.0 mi West 4.6 mph - N/A   Clear
6:15 PM 39.2 °F 35.0 °F 5.0 °F 24% 30.15 in 10.0 mi West 5.8 mph - N/A   Clear
6:35 PM 38.8 °F 34.6 °F 5.7 °F 25% 30.13 in 10.0 mi West 5.8 mph - N/A   Clear
6:55 PM 38.7 °F 36.3 °F 5.9 °F 26% 30.13 in 10.0 mi SSW 3.5 mph - N/A   Clear
7:15 PM 37.9 °F 33.5 °F 6.3 °F 27% 30.13 in 10.0 mi SSW 5.8 mph - N/A   Clear
7:35 PM 36.5 °F 32.7 °F 5.9 °F 28% 30.12 in 10.0 mi South 4.6 mph - N/A   Clear
7:55 PM 33.3 °F 28.9 °F 5.4 °F 31% 30.11 in 10.0 mi South 4.6 mph - N/A   Clear
8:15 PM 30.7 °F 26.0 °F 5.5 °F 35% 30.10 in 10.0 mi SE 4.6 mph - N/A   Clear
8:35 PM 29.1 °F 25.4 °F 5.2 °F 36% 30.10 in 7.0 mi SE 3.5 mph - N/A   Clear
8:55 PM 27.7 °F 23.8 °F 5.4 °F 39% 30.09 in 10.0 mi SSE 3.5 mph - N/A   Clear
9:15 PM 27.0 °F 23.0 °F 5.7 °F 41% 30.10 in 10.0 mi SE 3.5 mph - N/A   Clear
9:35 PM 25.7 °F 19.0 °F 5.4 °F 42% 30.09 in 10.0 mi SE 5.8 mph - N/A   Clear
9:55 PM 25.5 °F 17.8 °F 6.4 °F 44% 30.08 in 10.0 mi SE 6.9 mph - N/A   Clear
10:15 PM 26.4 °F 18.0 °F 6.6 °F 43% 30.07 in 10.0 mi SE 8.1 mph - N/A   Clear
10:35 PM 26.6 °F 19.1 °F 6.8 °F 43% 30.07 in 10.0 mi SE 6.9 mph - N/A   Clear
10:55 PM 26.1 °F 18.4 °F 7.0 °F 44% 30.06 in 10.0 mi SE 6.9 mph - N/A   Clear
11:15 PM 26.1 °F 18.4 °F 7.3 °F 45% 30.05 in 10.0 mi SE 6.9 mph - N/A   Scattered Clouds
11:35 PM 26.6 °F 18.2 °F 7.3 °F 44% 30.05 in 10.0 mi SE 8.1 mph - N/A   Scattered Clouds
11:55 PM 26.2 °F 17.8 °F 7.3 °F 45% 30.04 in 10.0 mi SE 8.1 mph - N/A   Scattered Clouds